DLH2SM EDDM-EDDS

Flight info

Callsign DLH2SM
Flight time N/A
Altitude 18000
Route RIDAR7Q/08L RIDAR L173 DODIL T127 TEKSI TEKSI5A
Aircraft A320/M-SDE3FGHIRWY/LB1

Departure

Time 2026-05-04 16:18
Airport Munich Airport (EDDM)

Arrival

Time N/A
Airport Stuttgart Airport (EDDS)
Time Latitude Longitude Altitude Speed Heading
2026-05-04 15:51 48.35815 11.79248 1485 ft 0 kts 263°
2026-05-04 16:02 48.35815 11.79250 1485 ft 2 kts 263°
2026-05-04 16:02 48.35820 11.79300 1483 ft 2 kts 263°
2026-05-04 16:03 48.35822 11.79326 1485 ft 2 kts 263°
2026-05-04 16:03 48.35823 11.79336 1485 ft 0 kts 266°
2026-05-04 16:04 48.35819 11.79371 1481 ft 3 kts 302°
2026-05-04 16:04 48.35807 11.79391 1471 ft 3 kts 339°
2026-05-04 16:05 48.35801 11.79394 1480 ft 0 kts 351°
2026-05-04 16:08 48.35805 11.79393 1471 ft 4 kts 351°
2026-05-04 16:08 48.35943 11.79494 1481 ft 0 kts
2026-05-04 16:09 48.36001 11.79494 1479 ft 4 kts 354°
2026-05-04 16:10 48.36007 11.79493 1475 ft 0 kts 354°
2026-05-04 16:12 48.36090 11.79440 1480 ft 11 kts 307°
2026-05-04 16:13 48.36088 11.79252 1477 ft 8 kts 264°
2026-05-04 16:13 48.36070 11.79051 1485 ft 10 kts 264°
2026-05-04 16:14 48.36057 11.78875 1480 ft 7 kts 264°
2026-05-04 16:14 48.36047 11.78735 1479 ft 8 kts 264°
2026-05-04 16:15 48.36091 11.78482 1477 ft 12 kts 347°
2026-05-04 16:16 48.36257 11.78617 1481 ft 16 kts 52°
2026-05-04 16:16 48.36442 11.79022 1478 ft 19 kts 68°
2026-05-04 16:17 48.36539 11.80091 1475 ft 123 kts 83°
2026-05-04 16:18 48.36962 11.84983 3090 ft 176 kts 77°
2026-05-04 16:18 48.37578 11.86679 3362 ft 197 kts 41°